Weather History for KDAB - March, 2014

Change the Weather History Date:

Friday, March 14, 2014

  Actual Average Record
Temperature  
Mean Temperature 57 °F 64 °F  
Max Temperature 71 °F 74 °F 89 °F (1985)
Min Temperature 42 °F 54 °F 30 °F (1926)
Degree Days  
Heating Degree Days 8 3  
Month to date heating degree days 50 55  
Since 1 July heating degree days 563 737  
Cooling Degree Days 0 2  
Month to date cooling degree days 13 28  
Year to date cooling degree days 97 93  
Growing Degree Days 7 (Base 50)    
Moisture  
Dew Point 44 °F    
Average Humidity 61    
Maximum Humidity 82    
Minimum Humidity 40    
Precipitation  
Precipitation 0.00 in 0.14 in 1.00 in (1997)
Month to date precipitation 0.20 1.84  
Year to date precipitation 6.78 7.36  
Sea Level Pressure  
Sea Level Pressure 30.25 in    
Wind  
Wind Speed 5 mph (ENE)    
Max Wind Speed 15 mph    
Max Gust Speed 21 mph    
Visibility 10 miles    
Events      
T = Trace of Precipitation, MM = Missing Value Source: NWS Daily Summary

Daily Weather History Graph

Daily Weather History Graph

Search for Another Location

Airport or City:

Trip Planner

Search our weather history database for the weather conditions in past years. The results will help you decide how hot, cold, wet, or windy it might be!

Date:

Astronomy

Mar. 14, 2014 Rise Set
Actual Time 7:35 AM EDT 7:32 PM EDT
Civil Twilight 7:11 AM EDT 7:55 PM EDT
Nautical Twilight 6:43 AM EDT 8:23 PM EDT
Astronomical Twilight 6:16 AM EDT 8:50 PM EDT
Moon 5:57 PM EDT (3/14) 6:07 AM EDT (3/14)
Length of Visible Light 12h 44m
Length of Day
11h 56m
Waxing Gibbous, 96% of the Moon is Illuminated
Mar 14
Waxing Gibbous
Mar 16
Full
Mar 23
Last Quarter
Mar 30
New
Apr 7
First Quarter

Hourly Weather History & Observations

Time (EDT) Temp. Windchill Dew Point Humidity Pressure Visibility Wind Dir Wind Speed Gust Speed Precip Events Conditions
12:53 AM 48.9 °F - 39.9 °F 71% 30.25 in 10.0 mi Calm Calm - N/A   Clear
1:53 AM 50.0 °F - 37.9 °F 63% 30.25 in 10.0 mi NNW 3.5 mph - N/A   Clear
2:53 AM 46.0 °F 43.9 °F 37.9 °F 73% 30.25 in 10.0 mi NW 4.6 mph - N/A   Clear
3:53 AM 46.0 °F 43.1 °F 37.9 °F 73% 30.24 in 10.0 mi NW 5.8 mph - N/A   Clear
4:53 AM 44.1 °F - 37.0 °F 76% 30.24 in 10.0 mi Calm Calm - N/A   Clear
5:53 AM 43.0 °F 41.3 °F 37.0 °F 80% 30.25 in 10.0 mi WSW 3.5 mph - N/A   Clear
6:53 AM 43.0 °F - 37.0 °F 80% 30.26 in 10.0 mi Calm Calm - N/A   Clear
7:53 AM 44.1 °F 42.5 °F 37.0 °F 76% 30.27 in 10.0 mi NW 3.5 mph - N/A   Partly Cloudy
8:53 AM 51.1 °F - 41.0 °F 68% 30.28 in 10.0 mi Calm Calm - N/A   Partly Cloudy
9:53 AM 62.1 °F - 45.0 °F 53% 30.30 in 10.0 mi NNW 4.6 mph - N/A   Partly Cloudy
10:53 AM 66.9 °F - 45.0 °F 45% 30.30 in 10.0 mi ENE 9.2 mph - N/A   Partly Cloudy
11:53 AM 68.0 °F - 46.0 °F 45% 30.30 in 10.0 mi East 10.4 mph 18.4 mph N/A   Scattered Clouds
12:53 PM 70.0 °F - 46.0 °F 42% 30.31 in 10.0 mi East 11.5 mph 16.1 mph N/A   Scattered Clouds
1:53 PM 70.0 °F - 45.0 °F 41% 30.30 in 10.0 mi East 9.2 mph - N/A   Partly Cloudy
2:53 PM 71.1 °F - 46.0 °F 41% 30.27 in 10.0 mi ENE 12.7 mph 17.3 mph N/A   Partly Cloudy
3:53 PM 70.0 °F - 46.9 °F 44% 30.24 in 10.0 mi ESE 8.1 mph - N/A   Partly Cloudy
4:53 PM 69.1 °F - 46.9 °F 45% 30.22 in 10.0 mi East 11.5 mph 18.4 mph N/A   Partly Cloudy
5:53 PM 68.0 °F - 48.9 °F 50% 30.20 in 10.0 mi ESE 9.2 mph 17.3 mph N/A   Partly Cloudy
6:53 PM 66.9 °F - 48.9 °F 52% 30.20 in 10.0 mi ESE 10.4 mph - N/A   Partly Cloudy
7:53 PM 64.0 °F - 48.0 °F 56% 30.21 in 10.0 mi ESE 3.5 mph - N/A   Partly Cloudy
8:53 PM 62.1 °F - 48.9 °F 62% 30.22 in 10.0 mi Calm Calm - N/A   Partly Cloudy
9:53 PM 62.1 °F - 51.1 °F 67% 30.22 in 10.0 mi SE 3.5 mph - N/A   Clear
10:53 PM 60.1 °F - 50.0 °F 69% 30.22 in 10.0 mi Calm Calm - N/A   Clear
11:53 PM 57.9 °F - 50.0 °F 75% 30.22 in 10.0 mi Calm Calm - N/A   Clear